Time,TemperatureF,DewpointF,PressureIn,WindDirection,WindDirectionDegrees,WindSpeedMPH,WindSpeedGustMPH,Humidity,HourlyPrecipIn,Conditions,Clouds,dailyrainin,SoftwareType,DateUTC
2013-02-12 00:01:00,20.0,12.0,30.06,SW,225,0.0,2.0,70,0.00,,,0.01,,2013-02-12 07:01:00,
2013-02-12 00:11:00,19.0,11.0,30.06,ESE,117,2.0,3.0,72,0.00,,,0.01,,2013-02-12 07:11:00,
2013-02-12 00:21:00,19.0,11.0,30.06,ESE,117,2.0,3.0,72,0.00,,,0.01,,2013-02-12 07:21:00,
2013-02-12 00:31:00,20.0,12.0,30.06,ESE,117,0.0,2.0,72,0.00,,,0.01,,2013-02-12 07:31:00,
2013-02-12 00:41:00,20.0,12.0,30.06,ESE,117,0.0,2.0,72,0.00,,,0.01,,2013-02-12 07:41:00,
2013-02-12 00:51:00,20.0,12.0,30.07,North,10,0.0,3.0,72,0.00,,,0.01,,2013-02-12 07:51:00,
2013-02-12 01:01:00,19.0,11.0,30.07,North,355,0.0,3.0,71,0.00,,,0.01,,2013-02-12 08:01:00,
2013-02-12 01:11:00,19.0,11.0,30.07,North,355,0.0,3.0,71,0.00,,,0.01,,2013-02-12 08:11:00,
2013-02-12 01:21:00,19.0,12.0,30.07,NE,35,0.0,2.0,73,0.00,,,0.01,,2013-02-12 08:21:00,
2013-02-12 01:31:00,19.0,12.0,30.07,SE,140,1.0,4.0,75,0.00,,,0.01,,2013-02-12 08:31:00,
2013-02-12 01:41:00,19.0,12.0,30.07,SE,140,1.0,4.0,75,0.00,,,0.01,,2013-02-12 08:41:00,
2013-02-12 01:52:00,20.0,13.0,30.07,SE,141,0.0,4.0,74,0.00,,,0.01,,2013-02-12 08:52:00,
2013-02-12 02:01:00,19.0,12.0,30.08,SSW,195,1.0,3.0,75,0.00,,,0.01,,2013-02-12 09:01:00,
2013-02-12 02:11:00,18.0,12.0,30.08,SSW,195,0.0,2.0,76,0.00,,,0.01,,2013-02-12 09:11:00,
2013-02-12 02:21:00,18.0,12.0,30.08,SSW,195,0.0,2.0,76,0.00,,,0.01,,2013-02-12 09:21:00,
2013-02-12 02:31:00,18.0,12.0,30.08,SSW,195,0.0,3.0,77,0.00,,,0.01,,2013-02-12 09:31:00,
2013-02-12 02:41:00,18.0,12.0,30.08,SSW,195,1.0,2.0,76,0.00,,,0.01,,2013-02-12 09:41:00,
2013-02-12 02:51:00,18.0,12.0,30.08,SSW,195,1.0,2.0,76,0.00,,,0.01,,2013-02-12 09:51:00,
2013-02-12 03:01:00,19.0,13.0,30.08,SE,138,1.0,4.0,77,0.00,,,0.01,,2013-02-12 10:01:00,
2013-02-12 03:11:00,18.0,12.0,30.08,South,184,4.0,6.0,78,0.00,,,0.01,,2013-02-12 10:11:00,
2013-02-12 03:21:00,18.0,12.0,30.08,South,184,4.0,6.0,78,0.00,,,0.01,,2013-02-12 10:21:00,
2013-02-12 03:31:00,19.0,13.0,30.09,SSE,153,3.0,6.0,77,0.00,,,0.01,,2013-02-12 10:31:00,
2013-02-12 03:43:00,19.0,13.0,30.09,SSE,153,3.0,6.0,77,0.00,,,0.01,,2013-02-12 10:43:00,
2013-02-12 03:51:00,19.0,13.0,30.09,SE,146,0.0,6.0,76,0.00,,,0.01,,2013-02-12 10:51:00,
2013-02-12 04:01:00,19.0,13.0,30.09,South,181,2.0,5.0,76,0.00,,,0.01,,2013-02-12 11:01:00,
2013-02-12 04:11:00,19.0,12.0,30.09,South,181,2.0,3.0,75,0.00,,,0.01,,2013-02-12 11:11:00,
2013-02-12 04:21:00,19.0,12.0,30.09,South,181,2.0,3.0,75,0.00,,,0.01,,2013-02-12 11:21:00,
2013-02-12 04:31:00,18.0,12.0,30.08,South,180,2.0,2.0,76,0.00,,,0.01,,2013-02-12 11:31:00,
2013-02-12 04:41:00,18.0,12.0,30.08,South,180,2.0,2.0,76,0.00,,,0.01,,2013-02-12 11:41:00,
2013-02-12 04:52:00,17.0,11.0,30.08,South,182,1.0,4.0,78,0.00,,,0.01,,2013-02-12 11:52:00,
2013-02-12 05:01:00,17.0,13.0,30.09,South,182,3.0,3.0,85,0.00,,,0.01,,2013-02-12 12:01:00,
2013-02-12 05:11:00,18.0,12.0,30.09,South,185,1.0,5.0,76,0.00,,,0.01,,2013-02-12 12:11:00,
2013-02-12 05:21:00,18.0,12.0,30.09,South,185,1.0,5.0,76,0.00,,,0.01,,2013-02-12 12:21:00,
2013-02-12 05:32:00,17.0,11.0,30.09,South,185,0.0,1.0,77,0.00,,,0.01,,2013-02-12 12:32:00,
2013-02-12 05:41:00,16.0,10.0,30.10,South,185,0.0,1.0,78,0.00,,,0.01,,2013-02-12 12:41:00,
2013-02-12 05:52:00,16.0,10.0,30.10,South,185,0.0,1.0,78,0.00,,,0.01,,2013-02-12 12:52:00,
2013-02-12 06:01:00,16.0,11.0,30.10,South,185,0.0,3.0,80,0.00,,,0.01,,2013-02-12 13:01:00,
2013-02-12 06:11:00,17.0,12.0,30.10,South,185,2.0,3.0,79,0.00,,,0.01,,2013-02-12 13:11:00,
2013-02-12 06:21:00,17.0,12.0,30.10,South,185,2.0,3.0,79,0.00,,,0.01,,2013-02-12 13:21:00,
2013-02-12 06:31:00,17.0,11.0,30.10,South,184,2.0,3.0,77,0.00,,,0.01,,2013-02-12 13:31:00,
2013-02-12 06:41:00,17.0,11.0,30.10,South,184,2.0,3.0,77,0.00,,,0.01,,2013-02-12 13:41:00,
2013-02-12 06:52:00,17.0,11.0,30.10,South,185,1.0,3.0,77,0.00,,,0.01,,2013-02-12 13:52:00,
2013-02-12 07:01:00,17.0,11.0,30.11,SSW,198,3.0,4.0,77,0.00,,,0.01,,2013-02-12 14:01:00,
2013-02-12 07:11:00,17.0,11.0,30.11,SSW,198,3.0,4.0,77,0.00,,,0.01,,2013-02-12 14:11:00,
2013-02-12 07:21:00,16.0,10.0,30.11,SSW,196,0.0,3.0,77,0.00,,,0.01,,2013-02-12 14:21:00,
2013-02-12 07:31:00,16.0,10.0,30.12,SSW,196,0.0,0.0,77,0.00,,,0.01,,2013-02-12 14:31:00,
2013-02-12 07:41:00,16.0,10.0,30.12,SSW,196,0.0,0.0,77,0.00,,,0.01,,2013-02-12 14:41:00,
2013-02-12 07:52:00,15.0,10.0,30.13,SSW,196,0.0,2.0,80,0.00,,,0.01,,2013-02-12 14:52:00,
2013-02-12 08:01:00,16.0,11.0,30.13,SSW,196,0.0,0.0,79,0.00,,,0.01,,2013-02-12 15:01:00,
2013-02-12 08:11:00,19.0,13.0,30.14,SSW,194,2.0,3.0,76,0.00,,,0.01,,2013-02-12 15:11:00,
2013-02-12 08:21:00,19.0,13.0,30.14,SSW,194,2.0,3.0,76,0.00,,,0.01,,2013-02-12 15:21:00,
2013-02-12 08:32:00,21.0,14.0,30.14,South,190,0.0,2.0,74,0.00,,,0.01,,2013-02-12 15:32:00,
2013-02-12 08:41:00,21.0,14.0,30.14,South,190,0.0,2.0,74,0.00,,,0.01,,2013-02-12 15:41:00,
2013-02-12 08:52:00,24.0,15.0,30.14,South,190,0.0,1.0,68,0.00,,,0.01,,2013-02-12 15:52:00,
2013-02-12 09:01:00,26.0,15.0,30.15,South,190,0.0,2.0,62,0.00,,,0.01,,2013-02-12 16:01:00,
2013-02-12 09:21:00,28.0,15.0,30.17,South,188,1.0,3.0,58,0.00,,,0.01,,2013-02-12 16:21:00,
2013-02-12 09:31:00,28.0,15.0,30.18,SE,132,0.0,4.0,57,0.00,,,0.01,,2013-02-12 16:31:00,
2013-02-12 09:41:00,28.0,15.0,30.18,SE,132,0.0,4.0,57,0.00,,,0.01,,2013-02-12 16:41:00,
2013-02-12 09:52:00,28.0,14.0,30.18,North,10,2.0,4.0,56,0.00,,,0.01,,2013-02-12 16:52:00,
2013-02-12 10:01:00,27.0,13.0,30.18,NNW,334,1.0,3.0,56,0.00,,,0.01,,2013-02-12 17:01:00,
2013-02-12 10:11:00,29.0,16.0,30.18,NNE,28,1.0,4.0,57,0.00,,,0.01,,2013-02-12 17:11:00,
2013-02-12 10:21:00,29.0,16.0,30.18,NNE,28,1.0,4.0,57,0.00,,,0.01,,2013-02-12 17:21:00,
2013-02-12 10:31:00,29.0,14.0,30.18,North,360,1.0,4.0,54,0.00,,,0.01,,2013-02-12 17:31:00,
2013-02-12 10:41:00,29.0,14.0,30.18,North,360,1.0,4.0,54,0.00,,,0.01,,2013-02-12 17:41:00,
2013-02-12 10:52:00,29.0,14.0,30.19,NNE,24,3.0,7.0,52,0.00,,,0.01,,2013-02-12 17:52:00,
2013-02-12 11:01:00,29.0,13.0,30.19,NNE,32,3.0,7.0,50,0.00,,,0.01,,2013-02-12 18:01:00,
2013-02-12 11:11:00,30.0,14.0,30.20,ENE,68,4.0,10.0,51,0.00,,,0.01,,2013-02-12 18:11:00,
2013-02-12 11:22:00,30.0,14.0,30.20,ENE,68,4.0,10.0,51,0.00,,,0.01,,2013-02-12 18:22:00,
2013-02-12 11:31:00,30.0,15.0,30.19,NNE,24,3.0,6.0,53,0.00,,,0.01,,2013-02-12 18:31:00,
2013-02-12 11:41:00,31.0,15.0,30.19,NE,55,2.0,6.0,50,0.00,,,0.01,,2013-02-12 18:41:00,
2013-02-12 11:51:00,31.0,15.0,30.19,NE,55,2.0,6.0,50,0.00,,,0.01,,2013-02-12 18:51:00,
2013-02-12 12:01:00,32.0,14.0,30.19,NNE,25,3.0,6.0,47,0.00,,,0.01,,2013-02-12 19:01:00,
2013-02-12 12:11:00,33.0,16.0,30.18,NNE,12,1.0,5.0,49,0.00,,,0.01,,2013-02-12 19:11:00,
2013-02-12 12:21:00,33.0,16.0,30.18,NNE,12,1.0,5.0,49,0.00,,,0.01,,2013-02-12 19:21:00,
2013-02-12 12:31:00,32.0,13.0,30.18,NNW,332,1.0,9.0,45,0.00,,,0.01,,2013-02-12 19:31:00,
2013-02-12 12:41:00,34.0,12.0,30.17,NNE,14,4.0,8.0,40,0.00,,,0.01,,2013-02-12 19:41:00,
2013-02-12 12:52:00,34.0,12.0,30.17,NNE,14,4.0,8.0,40,0.00,,,0.01,,2013-02-12 19:52:00,
2013-02-12 13:01:00,34.0,11.0,30.17,NNE,30,1.0,6.0,37,0.00,,,0.01,,2013-02-12 20:01:00,
2013-02-12 13:11:00,35.0,11.0,30.16,SSE,148,3.0,6.0,36,0.00,,,0.00,,2013-02-12 20:11:00,
2013-02-12 13:21:00,35.0,11.0,30.16,SSE,148,3.0,6.0,36,0.00,,,0.00,,2013-02-12 20:21:00,
2013-02-12 13:31:00,35.0,11.0,30.16,ENE,76,2.0,8.0,36,0.00,,,0.00,,2013-02-12 20:31:00,
2013-02-12 13:41:00,35.0,9.0,30.16,North,9,2.0,8.0,34,0.00,,,0.00,,2013-02-12 20:41:00,
2013-02-12 13:52:00,35.0,9.0,30.16,North,9,2.0,8.0,34,0.00,,,0.00,,2013-02-12 20:52:00,
2013-02-12 14:01:00,36.0,10.0,30.15,NW,321,3.0,7.0,33,0.00,,,0.00,,2013-02-12 21:01:00,
2013-02-12 14:11:00,36.0,10.0,30.15,NW,321,3.0,7.0,33,0.00,,,0.00,,2013-02-12 21:11:00,
2013-02-12 14:21:00,37.0,13.0,30.14,ENE,65,2.0,5.0,36,0.00,,,0.00,,2013-02-12 21:21:00,
2013-02-12 14:31:00,37.0,10.0,30.13,NW,323,3.0,7.0,32,0.00,,,0.00,,2013-02-12 21:31:00,
2013-02-12 14:41:00,36.0,8.0,30.13,NNW,344,4.0,7.0,31,0.00,,,0.00,,2013-02-12 21:41:00,
2013-02-12 14:51:00,36.0,8.0,30.13,NNW,344,4.0,7.0,31,0.00,,,0.00,,2013-02-12 21:51:00,
2013-02-12 15:01:00,37.0,8.0,30.12,NW,321,4.0,8.0,30,0.00,,,0.00,,2013-02-12 22:01:00,
2013-02-12 15:11:00,38.0,9.0,30.12,NE,45,3.0,5.0,29,0.00,,,0.00,,2013-02-12 22:11:00,
2013-02-12 15:21:00,38.0,9.0,30.12,NE,45,3.0,5.0,29,0.00,,,0.00,,2013-02-12 22:21:00,
2013-02-12 15:31:00,37.0,7.0,30.12,NE,41,7.0,10.0,28,0.00,,,0.00,,2013-02-12 22:31:00,
2013-02-12 15:41:00,38.0,7.0,30.12,NNW,344,5.0,8.0,27,0.00,,,0.00,,2013-02-12 22:41:00,
2013-02-12 15:52:00,38.0,7.0,30.12,NNW,344,5.0,8.0,27,0.00,,,0.00,,2013-02-12 22:52:00,
2013-02-12 16:01:00,38.0,8.0,30.12,NNE,25,4.0,10.0,28,0.00,,,0.00,,2013-02-12 23:01:00,
2013-02-12 16:11:00,38.0,10.0,30.13,NNW,338,4.0,11.0,31,0.00,,,0.00,,2013-02-12 23:11:00,
2013-02-12 16:21:00,38.0,10.0,30.13,NNW,338,4.0,11.0,31,0.00,,,0.00,,2013-02-12 23:21:00,
2013-02-12 16:31:00,38.0,11.0,30.13,North,11,3.0,10.0,33,0.00,,,0.00,,2013-02-12 23:31:00,
2013-02-12 16:41:00,38.0,11.0,30.13,North,11,3.0,10.0,33,0.00,,,0.00,,2013-02-12 23:41:00,
2013-02-12 16:52:00,38.0,13.0,30.13,NNW,343,4.0,7.0,35,0.00,,,0.00,,2013-02-12 23:52:00,
2013-02-12 17:02:00,37.0,10.0,30.13,NNW,336,5.0,10.0,32,0.00,,,0.00,,2013-02-13 00:02:00,
2013-02-12 17:11:00,37.0,10.0,30.13,NNW,336,5.0,10.0,32,0.00,,,0.00,,2013-02-13 00:11:00,
2013-02-12 17:21:00,37.0,9.0,30.13,NE,46,3.0,11.0,31,0.00,,,0.00,,2013-02-13 00:21:00,
2013-02-12 17:32:00,36.0,8.0,30.12,NE,37,3.0,10.0,31,0.00,,,0.00,,2013-02-13 00:32:00,
2013-02-12 17:41:00,36.0,8.0,30.12,NE,37,3.0,10.0,31,0.00,,,0.00,,2013-02-13 00:41:00,
2013-02-12 17:52:00,36.0,9.0,30.13,NNE,23,4.0,8.0,32,0.00,,,0.00,,2013-02-13 00:52:00,
2013-02-12 18:01:00,36.0,10.0,30.13,North,360,1.0,5.0,34,0.00,,,0.00,,2013-02-13 01:01:00,
2013-02-12 18:11:00,36.0,10.0,30.13,North,360,1.0,5.0,34,0.00,,,0.00,,2013-02-13 01:11:00,
2013-02-12 18:21:00,35.0,10.0,30.16,North,360,0.0,2.0,35,0.00,,,0.00,,2013-02-13 01:21:00,
2013-02-12 18:31:00,33.0,9.0,30.16,North,355,1.0,3.0,36,0.00,,,0.00,,2013-02-13 01:31:00,
2013-02-12 18:42:00,32.0,8.0,30.16,North,355,0.0,1.0,36,0.00,,,0.00,,2013-02-13 01:42:00,
2013-02-12 18:52:00,32.0,8.0,30.16,North,355,0.0,1.0,36,0.00,,,0.00,,2013-02-13 01:52:00,
2013-02-12 19:01:00,32.0,9.0,30.16,North,355,1.0,2.0,37,0.00,,,0.00,,2013-02-13 02:01:00,
2013-02-12 19:11:00,30.0,8.0,30.14,NNW,345,1.0,2.0,38,0.00,,,0.00,,2013-02-13 02:11:00,
2013-02-12 19:21:00,30.0,8.0,30.14,NNW,345,1.0,2.0,38,0.00,,,0.00,,2013-02-13 02:21:00,
2013-02-12 19:31:00,29.0,9.0,30.15,NNW,345,1.0,2.0,42,0.00,,,0.00,,2013-02-13 02:31:00,
2013-02-12 19:41:00,29.0,9.0,30.15,NNW,345,1.0,2.0,42,0.00,,,0.00,,2013-02-13 02:41:00,
2013-02-12 19:52:00,28.0,7.0,30.15,NNW,345,1.0,2.0,41,0.00,,,0.00,,2013-02-13 02:52:00,
2013-02-12 20:01:00,27.0,9.0,30.15,NNW,345,1.0,2.0,45,0.00,,,0.00,,2013-02-13 03:01:00,
2013-02-12 20:11:00,26.0,9.0,30.16,NNW,345,1.0,2.0,48,0.00,,,0.00,,2013-02-13 03:11:00,
2013-02-12 20:21:00,26.0,9.0,30.16,NNW,345,1.0,2.0,48,0.00,,,0.00,,2013-02-13 03:21:00,
2013-02-12 20:31:00,26.0,9.0,30.16,NNW,345,0.0,1.0,48,0.00,,,0.00,,2013-02-13 03:31:00,
2013-02-12 20:41:00,26.0,9.0,30.16,NNW,345,0.0,1.0,48,0.00,,,0.00,,2013-02-13 03:41:00,
2013-02-12 20:51:00,26.0,9.0,30.19,NNW,345,0.0,2.0,48,0.00,,,0.00,,2013-02-13 03:51:00,
2013-02-12 21:01:00,26.0,10.0,30.19,NW,311,2.0,3.0,50,0.00,,,0.00,,2013-02-13 04:01:00,
2013-02-12 21:11:00,26.0,10.0,30.19,NW,311,2.0,3.0,50,0.00,,,0.00,,2013-02-13 04:11:00,
2013-02-12 21:21:00,25.0,11.0,30.18,NW,311,1.0,2.0,54,0.00,,,0.00,,2013-02-13 04:21:00,
2013-02-12 21:31:00,26.0,10.0,30.18,NW,317,2.0,4.0,51,0.00,,,0.00,,2013-02-13 04:31:00,
2013-02-12 21:41:00,28.0,10.0,30.18,NNW,341,1.0,2.0,47,0.00,,,0.00,,2013-02-13 04:41:00,
2013-02-12 21:51:00,28.0,10.0,30.18,NNW,341,1.0,2.0,47,0.00,,,0.00,,2013-02-13 04:51:00,
2013-02-12 22:01:00,28.0,11.0,30.18,NW,322,0.0,2.0,48,0.00,,,0.00,,2013-02-13 05:01:00,
2013-02-12 22:11:00,28.0,10.0,30.18,NNW,342,0.0,2.0,47,0.00,,,0.00,,2013-02-13 05:11:00,
2013-02-12 22:21:00,28.0,10.0,30.18,NNW,342,0.0,2.0,47,0.00,,,0.00,,2013-02-13 05:21:00,
2013-02-12 22:31:00,29.0,11.0,30.18,North,360,3.0,8.0,47,0.00,,,0.00,,2013-02-13 05:31:00,
2013-02-12 22:41:00,29.0,11.0,30.18,North,360,3.0,8.0,47,0.00,,,0.00,,2013-02-13 05:41:00,
2013-02-12 22:52:00,28.0,11.0,30.18,NNE,23,3.0,8.0,48,0.00,,,0.00,,2013-02-13 05:52:00,
2013-02-12 23:01:00,29.0,11.0,30.18,NNE,30,2.0,6.0,46,0.00,,,0.00,,2013-02-13 06:01:00,
2013-02-12 23:11:00,29.0,10.0,30.17,NNE,23,4.0,8.0,45,0.00,,,0.00,,2013-02-13 06:11:00,
2013-02-12 23:21:00,29.0,10.0,30.17,NNE,23,4.0,8.0,45,0.00,,,0.00,,2013-02-13 06:21:00,
2013-02-12 23:31:00,29.0,11.0,30.17,NNE,15,1.0,4.0,46,0.00,,,0.00,,2013-02-13 06:31:00,
2013-02-12 23:41:00,28.0,10.0,30.17,NNE,21,2.0,4.0,47,0.00,,,0.00,,2013-02-13 06:41:00,
2013-02-12 23:52:00,28.0,10.0,30.17,NNE,21,2.0,4.0,47,0.00,,,0.00,,2013-02-13 06:52:00,